Location: Dehesa de la Cepeda
(40.6574°N, 4.3013°W)
Time: 10:46:36
(UTC+00:00)

Vanguard 2 Rocket - Pass Details

Date: 30 October 2021
Orbit: 555 x 3324 km, 32.9° (Epoch: 08 December)

Event Time Altitude Azimuth Distance (km) Brightness Sun altitude
Exits shadow 01:08:57 19° 121° (ESE) 5,002 10.5 -59.3°
Drops below altitude 10° 01:14:38 10° 101° (E) 5,346 10.9 -58.7°
Sets 01:19:34 0° 87° (E) 5,944 11.3 -58.1°
